DW9577 Weather Reports


Display with metric or nautical units.
time (UTC)temp
F
wind
direction
speed
MPH
gust
MPH
rain 1hr
in
rain 24hr
in
rain mn
in
humidity
%
barometer
mb
20260510174503 61 174 20.0 30.0 0.19 0.42 0.42 36 994.3
20260510173003 60 229 16.0 26.0 0.26 0.37 0.37 39 993.7
20260510171504 61 127 21.0 44.0 0.27 0.33 0.33 49 993.5
20260510170003 57 233 4.0 16.0 0.25 0.26 0.25 34 992.2
20260510164524 59 274 26.0 34.0 0.23 0.31 0.23 49 992.0
20260510163003 57 196 13.0 26.0 0.11 0.25 0.11 48 991.6
20260510161504 56 172 21.0 31.0 0.06 0.24 0.06 49 990.7
20260510160003 54 153 9.0 15.0 0.00 0.24 0.00 44 990.2
20260510154504 53 103 4.0 12.0 0.00 0.30 0.00 47 990.0
20260510153004 52 200 11.0 21.0 0.00 0.35 0.00 52 989.4
20260510151504 51 195 12.0 20.0 0.00 0.39 0.00 53 988.9
20260510150003 49 188 10.0 18.0 0.00 0.99 0.00 51 988.3
20260510144503 48 213 11.0 18.0 0.00 0.99 0.00 56 988.1
20260510143024 47 260 12.0 20.0 0.00 0.99 0.00 56 987.4
20260510141504 47 246 14.0 24.0 0.00 0.99 0.00 63 987.6
20260510024504 47 185 15.0 20.0 0.00 1.22 0.39 62 991.0
20260510023004 48 124 11.0 17.0 0.00 1.28 0.39 60 991.2
20260510021504 50 195 9.0 21.0 0.00 1.35 0.39 61 991.3
20260510020004 50 250 6.0 14.0 0.00 1.38 0.39 52 990.9
20260510014525 52 237 16.0 24.0 0.00 1.38 0.39 57 991.1
20260510013025 53 253 17.0 30.0 0.00 1.38 0.39 51 990.8
20260510011504 53 216 15.0 27.0 0.00 1.38 0.39 46 990.5
20260510010004 56 257 20.0 26.0 0.00 1.38 0.39 54 990.8
20260510004526 56 210 15.0 33.0 0.00 1.38 0.39 46 990.4
20260510003005 58 188 17.0 27.0 0.00 1.38 0.39 50 990.6
20260510001505 58 163 19.0 34.0 0.00 1.38 0.39 43 990.1
20260510000005 58 189 15.0 26.0 0.00 1.38 0.39 37 989.7
20260509234505 60 169 17.0 32.0 0.00 1.38 0.39 37 989.6
20260509233005 61 188 13.0 25.0 0.00 1.38 0.39 36 989.4
20260509231505 61 225 10.0 18.0 0.00 1.38 0.39 34 989.3
20260509230005 62 243 19.0 28.0 0.00 1.38 0.39 35 988.9
20260509224505 63 202 17.0 28.0 0.00 1.38 0.39 32 988.6
20260509223004 65 151 23.0 33.0 0.00 1.38 0.39 39 988.8
20260509221505 65 81 20.0 28.0 0.00 1.38 0.39 34 988.4
20260509220004 64 95 15.0 28.0 0.00 1.38 0.39 29 988.1
20260509214504 63 192 1.0 8.0 0.00 1.38 0.39 17 987.3
20260509213005 65 147 22.0 39.0 0.00 1.38 0.39 28 987.1
20260509211504 66 122 18.0 29.0 0.00 1.38 0.39 30 987.1
20260509210005 66 114 12.0 23.0 0.00 1.38 0.39 27 987.0
20260509204504 66 146 6.0 25.0 0.00 1.38 0.39 28 986.8
20260509203004 66 199 26.0 43.0 0.00 1.38 0.39 28 986.1
20260509201504 67 92 27.0 46.0 0.00 1.38 0.39 33 986.0
20260509200004 64 99 3.0 10.0 0.00 1.38 0.39 22 985.7
20260509194504 65 133 13.0 23.0 0.00 1.38 0.39 26 985.4
20260509193004 65 175 12.0 30.0 0.00 1.38 0.39 26 985.2
20260509191504 65 145 16.0 24.0 0.00 1.38 0.39 30 985.1
20260509190025 64 220 15.0 38.0 0.00 1.38 0.39 28 984.7
20260509184504 65 237 20.0 31.0 0.00 1.38 0.39 35 984.8
20260509183025 64 194 17.0 29.0 0.00 1.38 0.39 36 984.7
20260509181525 64 224 18.0 31.0 0.00 1.38 0.39 38 984.5
20260509180004 62 292 24.0 33.0 0.00 1.38 0.39 36 983.9